When you browse on this site, cookies collect data to enhance your experience and personalize the content and advertising you see.
Visit our Privacy Policy to learn more. By continuing to use the site, you agree to this use of cookies and data.
  • In Romania
  • List of Countries
  • For 7 days
  • Water Temperature
  • Weather Map
  • Weather Widgets
  • user-avatar
    Login

    Hourly Weather Sankt Polten

    Today, 21 August, Wednesday

    Time Temperature Precipitation Wind Pressure Humidity
    00:00 +19°C° 0.2 mm 4 mps 739 mmHg 93%
    01:00 +18°C° 0.2 mm 4 mps 740 mmHg 93%
    02:00 +18°C° 0.3 mm 4 mps 740 mmHg 94%
    03:00 +17°C° 0.3 mm 4 mps 741 mmHg 94%
    04:00 +15°C° 0.3 mm 4 mps 741 mmHg 94%
    05:00 +16°C° 0.2 mm 3 mps 742 mmHg 95%
    06:00 +16°C° 0.2 mm 3 mps 742 mmHg 95%
    07:00 +16°C° 0.2 mm 2 mps 743 mmHg 95%
    08:00 +16°C° 0 mm 2 mps 743 mmHg 92%
    09:00 +17°C° 0 mm 2 mps 743 mmHg 90%
    10:00 +17°C° 0 mm 2 mps 743 mmHg 87%
    11:00 +18°C° 0.1 mm 2 mps 743 mmHg 82%
    12:00 +21°C° 0.1 mm 1 mps 743 mmHg 76%
    13:00 +22°C° 0.1 mm 1 mps 743 mmHg 71%
    14:00 +22°C° 0 mm 1 mps 743 mmHg 70%
    15:00 +22°C° 0 mm 1 mps 743 mmHg 70%
    16:00 +21°C° 0 mm 2 mps 743 mmHg 70%
    17:00 +21°C° 0 mm 1 mps 743 mmHg 75%
    18:00 +20°C° 0 mm 1 mps 743 mmHg 80%
    19:00 +16°C° 0 mm 0 mps 743 mmHg 85%
    20:00 +18°C° 0 mm 1 mps 743 mmHg 87%
    21:00 +16°C° 0 mm 1 mps 743 mmHg 88%
    22:00 +16°C° 0 mm 1 mps 743 mmHg 89%
    23:00 +16°C° 0 mm 1 mps 743 mmHg 90%

    Tomorrow, 22 August, Thursday

    Time Temperature Precipitation Wind Pressure Humidity
    00:00 +15°C° 0 mm 1 mps 743 mmHg 92%
    01:00 +15°C° 0 mm 1 mps 743 mmHg 93%
    02:00 +15°C° 0.2 mm 1 mps 742 mmHg 93%
    03:00 +14°C° 0.2 mm 1 mps 742 mmHg 94%
    04:00 +14°C° 0.2 mm 1 mps 742 mmHg 95%
    05:00 +15°C° 0.2 mm 1 mps 742 mmHg 93%
    06:00 +16°C° 0.2 mm 1 mps 742 mmHg 91%
    07:00 +16°C° 0.2 mm 1 mps 742 mmHg 90%
    08:00 +18°C° 0 mm 1 mps 742 mmHg 84%
    09:00 +19°C° 0 mm 2 mps 742 mmHg 78%
    10:00 +20°C° 0 mm 2 mps 742 mmHg 72%
    11:00 +21°C° 0 mm 2 mps 742 mmHg 66%
    12:00 +24°C° 0 mm 2 mps 742 mmHg 61%
    13:00 +25°C° 0 mm 2 mps 742 mmHg 55%
    14:00 +25°C° 0 mm 2 mps 741 mmHg 56%
    15:00 +25°C° 0 mm 2 mps 741 mmHg 57%
    16:00 +25°C° 0 mm 2 mps 741 mmHg 58%
    17:00 +23°C° 0 mm 2 mps 741 mmHg 66%
    18:00 +21°C° 0 mm 1 mps 741 mmHg 74%
    19:00 +20°C° 0 mm 1 mps 741 mmHg 82%
    20:00 +19°C° 0 mm 1 mps 741 mmHg 84%
    21:00 +18°C° 0 mm 1 mps 741 mmHg 87%
    22:00 +18°C° 0 mm 1 mps 742 mmHg 89%
    23:00 +18°C° 0 mm 1 mps 742 mmHg 91%

    Day after tomorrow, 23 August, Friday

    Time Temperature Precipitation Wind Pressure Humidity
    00:00 +15°C° 0 mm 0 mps 742 mmHg 92%
    01:00 +15°C° 0 mm 0 mps 742 mmHg 93%
    02:00 +15°C° 0 mm 0 mps 742 mmHg 94%
    03:00 +14°C° 0 mm 0 mps 741 mmHg 94%
    04:00 +14°C° 0 mm 0 mps 741 mmHg 94%
    05:00 +15°C° 0 mm 0 mps 742 mmHg 91%
    06:00 +16°C° 0 mm 0 mps 742 mmHg 88%
    07:00 +19°C° 0 mm 1 mps 742 mmHg 85%
    08:00 +21°C° 0 mm 1 mps 742 mmHg 78%
    09:00 +23°C° 0 mm 1 mps 742 mmHg 71%
    10:00 +25°C° 0 mm 2 mps 742 mmHg 64%
    11:00 +26°C° 0.1 mm 2 mps 742 mmHg 62%
    12:00 +27°C° 0.1 mm 3 mps 741 mmHg 61%
    13:00 +28°C° 0.1 mm 3 mps 741 mmHg 59%
    14:00 +28°C° 0.2 mm 3 mps 741 mmHg 60%
    15:00 +28°C° 0.2 mm 3 mps 740 mmHg 61%
    16:00 +28°C° 0.2 mm 3 mps 740 mmHg 63%
    17:00 +26°C° 0.4 mm 2 mps 740 mmHg 71%
    18:00 +24°C° 0.4 mm 2 mps 740 mmHg 79%
    19:00 +22°C° 0.4 mm 1 mps 740 mmHg 87%
    20:00 +22°C° 0.4 mm 1 mps 740 mmHg 89%
    21:00 +21°C° 0.4 mm 1 mps 740 mmHg 90%
    22:00 +21°C° 0.4 mm 1 mps 740 mmHg 92%
    23:00 +20°C° 0 mm 1 mps 740 mmHg 92%

    24 August, Saturday

    Time Temperature Precipitation Wind Pressure Humidity
    00:00 +20°C° 0 mm 1 mps 740 mmHg 92%
    01:00 +20°C° 0 mm 1 mps 739 mmHg 93%
    02:00 +20°C° 0 mm 1 mps 739 mmHg 93%
    03:00 +20°C° 0 mm 1 mps 739 mmHg 93%
    04:00 +19°C° 0 mm 1 mps 739 mmHg 93%
    05:00 +20°C° 0 mm 1 mps 739 mmHg 92%
    06:00 +21°C° 0 mm 1 mps 739 mmHg 90%
    07:00 +20°C° 0 mm 0 mps 739 mmHg 88%
    08:00 +24°C° 0 mm 1 mps 739 mmHg 80%
    09:00 +26°C° 0 mm 1 mps 739 mmHg 72%
    10:00 +28°C° 0 mm 1 mps 740 mmHg 64%
    11:00 +29°C° 0 mm 2 mps 739 mmHg 59%
    12:00 +30°C° 0 mm 2 mps 739 mmHg 53%
    13:00 +31°C° 0 mm 2 mps 739 mmHg 48%
    14:00 +31°C° 0.1 mm 2 mps 738 mmHg 48%
    15:00 +31°C° 0.1 mm 2 mps 738 mmHg 49%
    16:00 +31°C° 0.1 mm 2 mps 738 mmHg 49%
    17:00 +29°C° 0 mm 2 mps 738 mmHg 55%
    18:00 +27°C° 0 mm 2 mps 737 mmHg 61%
    19:00 +25°C° 0 mm 1 mps 737 mmHg 67%
    20:00 +24°C° 0 mm 1 mps 737 mmHg 69%
    21:00 +23°C° 0 mm 1 mps 738 mmHg 71%
    22:00 +22°C° 0 mm 1 mps 738 mmHg 73%
    23:00 +22°C° 0 mm 1 mps 738 mmHg 74%

    25 August, Sunday

    Time Temperature Precipitation Wind Pressure Humidity
    00:00 +22°C° 0 mm 1 mps 738 mmHg 75%
    01:00 +21°C° 0 mm 1 mps 737 mmHg 76%
    02:00 +21°C° 0 mm 1 mps 737 mmHg 78%
    03:00 +21°C° 0 mm 1 mps 737 mmHg 79%
    04:00 +20°C° 0 mm 1 mps 737 mmHg 81%
    05:00 +21°C° 0 mm 1 mps 737 mmHg 79%
    06:00 +22°C° 0 mm 1 mps 738 mmHg 77%
    07:00 +21°C° 0 mm 0 mps 738 mmHg 75%
    08:00 +25°C° 0 mm 1 mps 738 mmHg 69%
    09:00 +27°C° 0 mm 1 mps 738 mmHg 63%
    10:00 +28°C° 0 mm 1 mps 738 mmHg 57%
    11:00 +29°C° 0 mm 1 mps 738 mmHg 54%
    12:00 +31°C° 0 mm 1 mps 738 mmHg 50%
    13:00 +32°C° 0 mm 1 mps 738 mmHg 47%
    14:00 +32°C° 0 mm 1 mps 737 mmHg 47%
    15:00 +32°C° 0 mm 1 mps 737 mmHg 46%
    16:00 +32°C° 0 mm 1 mps 737 mmHg 46%
    17:00 +30°C° 0 mm 1 mps 737 mmHg 53%
    18:00 +27°C° 0 mm 1 mps 737 mmHg 60%
    19:00 +25°C° 0 mm 1 mps 737 mmHg 68%
    20:00 +24°C° 0 mm 1 mps 737 mmHg 70%
    21:00 +23°C° 0 mm 1 mps 738 mmHg 72%
    22:00 +23°C° 0 mm 1 mps 738 mmHg 74%
    23:00 +22°C° 0 mm 1 mps 738 mmHg 76%

    26 August, Monday

    Time Temperature Precipitation Wind Pressure Humidity
    00:00 +22°C° 0 mm 1 mps 738 mmHg 77%
    01:00 +21°C° 0 mm 1 mps 738 mmHg 79%
    02:00 +21°C° 0.1 mm 1 mps 738 mmHg 81%
    03:00 +21°C° 0.1 mm 1 mps 738 mmHg 83%
    04:00 +20°C° 0.1 mm 1 mps 738 mmHg 85%
    05:00 +21°C° 0 mm 1 mps 738 mmHg 84%
    06:00 +22°C° 0 mm 1 mps 739 mmHg 82%
    07:00 +23°C° 0 mm 1 mps 739 mmHg 81%
    08:00 +25°C° 0.2 mm 1 mps 739 mmHg 75%
    09:00 +26°C° 0.2 mm 2 mps 739 mmHg 69%
    10:00 +28°C° 0.2 mm 2 mps 739 mmHg 63%
    11:00 +29°C° 0.4 mm 2 mps 739 mmHg 61%
    12:00 +29°C° 0.4 mm 2 mps 739 mmHg 59%
    13:00 +30°C° 0.4 mm 2 mps 739 mmHg 57%
    14:00 +29°C° 1 mm 2 mps 739 mmHg 61%
    15:00 +29°C° 1 mm 2 mps 739 mmHg 64%
    16:00 +28°C° 1 mm 2 mps 739 mmHg 68%
    17:00 +26°C° 0.4 mm 1 mps 739 mmHg 73%
    18:00 +24°C° 0.4 mm 1 mps 739 mmHg 78%
    19:00 +21°C° 0.4 mm 0 mps 739 mmHg 84%
    20:00 +22°C° 0.1 mm 1 mps 739 mmHg 85%
    21:00 +22°C° 0.1 mm 1 mps 740 mmHg 86%
    22:00 +21°C° 0.1 mm 1 mps 740 mmHg 87%
    23:00 +21°C° 0.1 mm 1 mps 740 mmHg 87%
    Show more